Left ArrowRight Arrow

38.83388, -104.82136

Hourly Observations for June 22, 2024

Temp ( °F °C ) Dew Point ( °F °C ) Humidity (%) Winds ( mph kmh ) Pressure ( in mb ) Visibility ( mi km ) Precip ( " mm )
12:30 am 00:30 Cloudy 73 23 41 5 31 31 W 12 19 29.61 1003 10 16 0.00 0.00
12:55 am 00:55 Cloudy 70 21 43 6.1 38 38 S 6 9 29.60 1002 10 16 0.00 0.00
1:55 am 01:55 Cloudy 67 19.4 45 7.2 45 45 S 7 11 29.60 1002 10 16 0.00 0.00
2:55 am 02:55 Cloudy 65 18.4 47 8.6 53 53 Calm 29.62 1003 10 16 0.00 0.00
3:55 am 03:55 Cloudy 66 18.7 44 6.5 45 45 Calm 29.60 1002 10 16 0.00 0.00
4:55 am 04:55 Cloudy 68 19.9 41 4.8 37 37 SSW 6 9 29.61 1003 10 16 0.00 0.00
5:55 am 05:55 Cloudy 66 18.7 37 2.5 34 34 WSW 3 6 29.64 1004 10 16 0.00 0.00
6:55 am 06:55 Mostly Cloudy 67 19.5 41 4.8 38 38 Calm 29.65 1004 10 16 0.00 0.00
7:55 am 07:55 Cloudy 65 18.6 46 8 50 50 S 5 7 29.67 1005 10 16 0.00 0.00
8:55 am 08:55 Cloudy 65 18.6 51 10.7 60 60 SSE 6 9 29.70 1006 10 16 0.00 0.00
9:55 am 09:55 Mostly Cloudy 69 20.7 49 9.3 48 48 SE 6 9 29.71 1006 10 16 0.00 0.00
10:55 am 10:55 Sunny 74 23.2 48 8.8 40 40 ESE 5 7 29.70 1006 10 16 0.00 0.00
11:55 am 11:55 Sunny 74 23.1 48 9.1 41 41 SE 7 11 29.71 1006 10 16 0.00 0.00
12:55 pm 12:55 Sunny 77 24.9 42 5.6 29 29 SE 10 17 29.70 1006 10 16 0.00 0.00
1:55 pm 13:55 Mostly Sunny 76 24.7 40 4.4 27 27 SSE 12 19 29.70 1006 10 16 0.00 0.00
2:55 pm 14:55 Mostly Cloudy 76 24.6 41 4.9 28 28 S 9 15 29.69 1005 10 16 0.00 0.00
3:55 pm 15:55 Mostly Sunny 80 26.5 44 6.5 28 28 SE 12 19 29.66 1004 10 16 0.00 0.00
4:55 pm 16:55 Partly Cloudy 80 26.6 44 6.6 28 28 SE 10 17 29.65 1004 9 14 0.00 0.00
5:55 pm 17:55 Mostly Sunny 78 25.8 41 4.8 26 26 SE 12 19 29.66 1004 10 16 0.00 0.00
6:55 pm 18:55 Sunny 77 25.2 41 4.9 27 27 SSE 13 20 29.67 1005 10 16 0.00 0.00
7:42 pm 19:42 Cloudy 73 23 45 7 36 36 NW 14 22 29.74 1007 10 16 0.00 0.00
8:02 pm 20:02 Cloudy with Light Rain 72 22 45 7 38 38 NNW 18 30 29.75 1007 10 16 0.00 0.00
8:18 pm 20:18 Cloudy 72 22 43 6 35 35 NW 14 22 29.76 1008 10 16 0.00 0.00
8:55 pm 20:55 Mostly Cloudy 71 21.6 44 6.7 38 38 W 8 13 29.75 1007 10 16 0.01 0.13
9:55 pm 21:55 Cloudy 69 20.8 45 7.1 41 41 WNW 8 13 29.77 1008 10 16 0.00 0.00
10:55 pm 22:55 Cloudy 70 21.2 43 5.9 37 37 Calm 29.76 1008 10 16 0.00 0.00
11:55 pm 23:55 Clear 68 19.9 43 5.9 40 40 W 6 9 29.75 1007 10 16 0.00 0.00

Powered by Vaisala Xweather